[[{"header":{"parameterUnit":"m.s-1","parameterCategory":1,"la1":30.2991,"la2":30.254,"lo1":-89.0895,"lo2":-89.0444,"dy":0.0017,"dx":0.0017,"nx":28,"ny":28,"refTime":"2025-12-06T09:00:00:Z","depth":0,"parameterNumber":2,"parameterNumberName":"U-component_of_WINDS"},"data":[0,0,0,0,0,0,0,0,0,0,0,0,0,0,0,0,0,0,0,0,0,0,0,0,0,0,0,0,0,0,0,0,0,0,0,0,0,0,0,0,0,0,0,0,0,0,0,0,0,0,0,0,0,0,0,0,0,0,-1.9866,-1.9867,0,-1.9919,-1.992,-1.992,-1.9849,-1.9846,-1.9843,-1.9841,-1.9899,-1.9902,-1.9906,0,0,0,0,0,0,0,0,0,0,0,0,0,-1.9706,-1.9709,-1.9866,-1.9867,-1.9868,-1.9919,-1.992,-1.9921,-1.9849,-1.9846,-1.9843,-1.984,-1.9897,-1.9902,-1.9907,0,0,0,0,0,0,0,0,0,0,0,0,0,-1.9769,-1.971,-1.9866,-1.9838,-1.9836,-1.9919,-1.992,-1.9921,-1.985,-1.9846,-1.9842,-1.9838,-1.9896,-1.9901,-1.9907,-2.0021,0,0,-1.9925,-1.9928,0,0,0,0,0,0,0,0,-1.9765,-1.9775,-1.9841,-1.984,-1.9838,-1.9873,-1.9884,-1.9955,-1.9851,-1.9845,-1.9841,-1.9836,-1.9894,-1.9899,-1.9918,-2.0024,-2.0027,-1.9926,-1.993,-1.9932,-1.9934,0,0,0,0,0,0,0,-1.9761,-1.9772,-1.9887,-1.9843,-1.984,-1.9824,-1.9828,-1.9897,-1.989,-1.9845,-1.984,-1.9847,-1.9892,-1.9912,-1.9919,-2.0027,-1.9926,-1.9931,-1.9935,-1.9937,-2.023,-2.0234,0,0,0,0,0,0,-1.976,-1.9769,-1.9886,-1.9889,-1.9791,-1.983,-1.9835,-1.9866,-1.9889,-1.9889,-1.985,-1.9843,-1.9904,-1.9912,-1.9921,-2.0056,-1.9932,-1.9938,-1.9941,-2.0226,-2.0231,-2.0236,0,0,0,0,0,0,-1.9757,-1.9771,-1.9883,-1.9828,-1.9841,-1.9836,-1.9872,-1.9869,-1.9889,-1.9893,-1.9892,-1.9872,-1.9901,-1.9912,-1.9997,-2.0057,-1.994,-1.9946,-2.0221,-2.0227,-2.0233,-2.0327,0,0,0,0,0,0,-1.9752,-1.977,-1.9813,-1.9829,-1.9844,-1.9958,-1.9876,-1.9873,-1.9899,-1.9891,-1.9914,-1.9914,-1.9899,-1.9988,-2.0003,-2.0063,-1.995,-2.0215,-2.0224,-2.0231,-2.0319,-2.0336,-2.0351,0,0,0,0,0,-1.9747,-1.9838,-1.9815,-1.983,-1.9897,-1.9962,-1.997,-1.9951,-1.9905,-1.9948,-1.995,-1.9913,-2.0048,-1.9997,-2.0013,-2.0076,-2.0212,-2.0221,-2.0231,-2.0312,-2.0333,-2.0351,0,0,0,0,0,0,-1.983,-1.984,-1.9815,-1.9914,-1.9937,-1.9949,-2.0004,-1.9974,-2.0012,-2.0003,-1.9978,-1.9984,-2.0074,-2.0083,-2.0027,-2.0188,-2.0122,-2.0135,-2.0178,-2.0198,-2.0214,-2.021,-1.9955,0,0,0,0,0,-1.986,-1.9911,-1.9916,-2.0003,-2.0016,-2.0008,-2.0036,-2.0018,-2.0042,-2.0052,-2.0061,-2.0087,-2.0134,-2.0167,-2.0211,-2.0319,-2.0324,-2.037,-2.0386,-2.04,-2.0412,-2.047,-2.0491,-2.0267,-2.0267,-2.0267,0,0,-1.9922,-1.9933,-1.9967,-2.002,-2.0037,-2.0091,-2.0017,-2.0077,-2.0118,-2.0062,-2.0142,-2.0149,-2.0176,-2.0273,-2.0316,-2.0284,-2.0474,-2.0412,-2.0422,-2.0427,-2.0482,-2.0503,-2.0522,-2.0273,-2.0272,-2.0271,0,0,-2.0063,-2.0077,-2.015,-2.0168,-2.0193,-2.0187,-2.0205,-2.0222,-2.0224,-2.0304,-2.0263,-2.0311,-2.0394,-2.0415,-2.0436,-2.0585,-2.0552,-2.06,-2.0684,-2.0741,-2.0759,-2.0774,-2.0828,-2.0847,-2.0612,-2.0612,-2.0612,0,-2.0138,-2.0217,-2.0192,-2.0256,-2.028,-2.0231,-2.0306,-2.0325,-2.0364,-2.0383,-2.0345,-2.0448,-2.0463,-2.0564,-2.06,-2.0619,-2.0639,-2.0598,-2.0758,-2.0773,-2.0788,-2.0838,-2.0859,-2.0618,-2.0617,-2.0617,-2.0616,0,-2.0307,-2.0363,-2.0419,-2.0457,-2.0488,-2.0557,-2.0544,-2.0579,-2.0559,-2.0557,-2.0639,-2.0655,-2.0701,-2.0724,-2.0705,-2.0823,-2.0802,-2.0762,-2.0696,-2.0815,-2.0862,-2.0882,-2.0626,-2.0624,-2.0622,-2.0621,0,0,-2.0503,-2.0526,-2.0547,-2.0564,-2.0588,-2.0631,-2.0698,-2.0742,-2.0773,-2.0801,-2.0857,-2.0928,-2.0891,-2.0916,-2.0899,-2.0949,-2.1066,-2.0903,-2.0903,-2.0933,-2.1197,-2.1228,-2.125,-2.1044,-2.1048,-2.1051,-2.1195,0,-2.0644,-2.0759,-2.0739,-2.0851,-2.0902,-2.0856,-2.0914,-2.0935,-2.0935,-2.098,-2.098,-2.1031,-2.0978,-2.0992,-2.1039,-2.1042,-2.1119,-2.1031,-2.1097,-2.11,-2.1093,-2.1275,-2.1307,-2.1443,-2.1213,-2.1216,-2.1219,0,-2.0825,-2.0859,-2.0975,-2.0991,-2.1012,-2.1065,-2.1104,-2.1146,-2.117,-2.1166,-2.1194,-2.1168,-2.1235,-2.1167,-2.126,-2.1201,-2.1226,-2.1232,-2.1237,-2.1243,-2.1167,-2.1287,-2.1485,-2.1506,-2.1247,-2.1245,-2.1243,0,-2.0957,-2.1032,-2.1111,-2.1127,-2.1147,-2.1185,-2.1196,-2.1215,-2.1243,-2.1278,-2.1296,-2.1338,-2.1362,-2.1396,-2.1382,-2.1334,-2.1478,-2.1409,-2.1478,-2.1478,-2.1511,-2.1509,-2.1717,-2.1527,-2.1526,-2.1526,-2.1525,0,-2.1117,-2.119,-2.117,-2.122,-2.13,-2.1277,-2.1358,-2.1363,-2.1381,-2.1431,-2.1393,-2.1441,-2.142,-2.1466,-2.1456,-2.1535,-2.1546,-2.1545,-2.1542,-2.1549,-2.1549,-2.1566,-2.1557,-2.1531,-2.153,-2.1529,-2.1528,0,-2.1278,-2.1268,-2.1351,-2.1363,-2.1368,-2.1427,-2.1438,-2.1484,-2.1481,-2.1544,-2.1558,-2.1553,-2.1606,-2.1595,-2.1654,-2.1647,-2.1746,-2.1731,-2.1738,-2.1734,-2.1804,-2.1798,-2.2031,-2.2061,-2.185,-2.1852,-2.1854,0,-2.1381,-2.1436,-2.1454,-2.1484,-2.1497,-2.1547,-2.1575,-2.1554,-2.1585,-2.1616,-2.1659,-2.1708,-2.1746,-2.1832,-2.1835,-2.1879,-2.1865,-2.1944,-2.1872,-2.1877,-2.1867,-2.1864,-2.187,-2.1958,-2.1961,-2.1963,-2.1964,0,-2.1566,-2.1558,-2.1599,-2.164,-2.1674,-2.1705,-2.1732,-2.1759,-2.174,-2.1777,-2.183,-2.186,-2.1919,-2.1968,-2.2009,-2.2021,-2.199,-2.1987,-2.2005,-2.2013,-2.2015,-2.2016,-2.1778,-2.1982,-2.198,-2.1979,-2.1978,-2.1977,-2.1702,-2.1749,-2.1768,-2.1816,-2.1834,-2.186,-2.1904,-2.1906,-2.1949,-2.1995,-2.198,-2.2041,-2.2063,-2.2115,-2.2131,-2.2179,-2.2149,-2.2176,-2.2183,-2.219,-2.2199,-2.2007,-2.2186,-2.2186,-2.2185,-2.2185,-2.2184,0,-2.1885,-2.1895,-2.1939,-2.1978,-2.2015,-2.1982,-2.201,-2.2044,-2.2097,-2.212,-2.2158,-2.2219,-2.2267,-2.2273,-2.2318,-2.2355,-2.2342,-2.2368,-2.2365,-2.2369,-2.2222,-2.2202,-2.2377,-2.2377,-2.2377,-2.2377,-2.2377,-2.2377,-2.1984,-2.2062,-2.2057,-2.2143,-2.2153,-2.2211,-2.223,-2.2254,-2.2272,-2.2342,-2.2381,-2.2384,-2.24,-2.2446,-2.2489,-2.2489,-2.2508,-2.2539,-2.2535,-2.2398,-2.2379,-2.236,-2.2341,-2.2543,-2.2544,-2.2677,-2.2678,-2.2679]},{"header":{"parameterUnit":"m.s-1","parameterCategory":1,"la1":30.2991,"la2":30.254,"lo1":-89.0895,"lo2":-89.0444,"dy":0.0017,"dx":0.0017,"nx":28,"ny":28,"refTime":"2025-12-06T09:00:00:Z","depth":0,"parameterNumber":3,"parameterNumberName":"V-component_of_WINDS"},"data":[0,0,0,0,0,0,0,0,0,0,0,0,0,0,0,0,0,0,0,0,0,0,0,0,0,0,0,0,0,0,0,0,0,0,0,0,0,0,0,0,0,0,0,0,0,0,0,0,0,0,0,0,0,0,0,0,0,0,-3.7141,-3.7141,0,-3.7132,-3.7132,-3.7132,-3.705,-3.7048,-3.7046,-3.7044,-3.7035,-3.7037,-3.7038,0,0,0,0,0,0,0,0,0,0,0,0,0,-3.7087,-3.7089,-3.7141,-3.7141,-3.7141,-3.7132,-3.7132,-3.7132,-3.7051,-3.7048,-3.7046,-3.7043,-3.7035,-3.7037,-3.7038,0,0,0,0,0,0,0,0,0,0,0,0,0,-3.7098,-3.7089,-3.7141,-3.71,-3.7096,-3.7132,-3.7132,-3.7132,-3.7051,-3.7048,-3.7045,-3.7042,-3.7034,-3.7036,-3.7039,-3.7115,0,0,-3.7046,-3.7047,0,0,0,0,0,0,0,0,-3.7098,-3.71,-3.7106,-3.7102,-3.7098,-3.7089,-3.711,-3.7126,-3.7052,-3.7068,-3.7044,-3.7041,-3.7056,-3.7056,-3.7061,-3.7115,-3.7114,-3.7047,-3.7048,-3.7049,-3.705,0,0,0,0,0,0,0,-3.7097,-3.71,-3.7138,-3.7106,-3.7101,-3.7081,-3.7079,-3.7113,-3.7079,-3.7066,-3.7061,-3.7061,-3.7053,-3.7059,-3.706,-3.7114,-3.7046,-3.7049,-3.705,-3.7051,-3.7229,-3.7232,0,0,0,0,0,0,-3.7102,-3.71,-3.7138,-3.7137,-3.709,-3.7084,-3.7082,-3.7095,-3.7078,-3.7073,-3.7063,-3.7057,-3.7056,-3.7057,-3.706,-3.7148,-3.7049,-3.7051,-3.7053,-3.7226,-3.723,-3.7234,0,0,0,0,0,0,-3.7101,-3.7106,-3.7138,-3.7117,-3.712,-3.7089,-3.7104,-3.7097,-3.7103,-3.7076,-3.707,-3.7076,-3.7054,-3.7056,-3.7102,-3.7146,-3.7052,-3.7055,-3.7222,-3.7227,-3.7232,-3.7325,0,0,0,0,0,0,-3.71,-3.7106,-3.7135,-3.7118,-3.7121,-3.7181,-3.7107,-3.7099,-3.7107,-3.7099,-3.7086,-3.7081,-3.7052,-3.7099,-3.7104,-3.7148,-3.7057,-3.7218,-3.7224,-3.723,-3.7318,-3.7332,-3.7345,0,0,0,0,0,-3.7098,-3.7162,-3.7137,-3.7142,-3.7157,-3.7184,-3.7185,-3.7151,-3.7111,-3.714,-3.7122,-3.7081,-3.7141,-3.7104,-3.711,-3.7155,-3.7215,-3.7223,-3.723,-3.7312,-3.733,-3.7345,0,0,0,0,0,0,-3.7185,-3.7159,-3.7131,-3.7191,-3.719,-3.717,-3.7205,-3.7171,-3.7181,-3.7173,-3.7129,-3.7127,-3.7179,-3.7171,-3.7131,-3.7228,-3.7171,-3.7179,-3.7231,-3.7248,-3.7261,-3.7262,-3.7059,0,0,0,0,0,-3.7211,-3.7235,-3.7211,-3.7267,-3.7268,-3.7237,-3.7247,-3.7221,-3.7218,-3.7217,-3.7203,-3.7202,-3.722,-3.7234,-3.7249,-3.7316,-3.7312,-3.735,-3.7364,-3.7375,-3.7383,-3.7418,-3.7435,-3.7258,-3.7257,-3.7257,0,0,-3.7265,-3.7254,-3.7272,-3.7284,-3.728,-3.7306,-3.7237,-3.7268,-3.7287,-3.7222,-3.7264,-3.7254,-3.725,-3.7307,-3.7331,-3.7302,-3.7431,-3.7384,-3.7393,-3.7395,-3.7427,-3.7444,-3.7459,-3.7263,-3.7262,-3.7261,0,0,-3.7377,-3.7371,-3.7416,-3.7414,-3.7409,-3.7388,-3.7399,-3.7384,-3.7375,-3.7416,-3.7368,-3.739,-3.7423,-3.7422,-3.7426,-3.7537,-3.75,-3.7543,-3.7614,-3.7649,-3.7663,-3.7675,-3.7715,-3.773,-3.7551,-3.7552,-3.7552,0,-3.7445,-3.7483,-3.7444,-3.7478,-3.7484,-3.7427,-3.7472,-3.7472,-3.7472,-3.7478,-3.7445,-3.7485,-3.7478,-3.7534,-3.7561,-3.7566,-3.7577,-3.7545,-3.7664,-3.7676,-3.7687,-3.7725,-3.774,-3.7557,-3.7556,-3.7556,-3.7555,0,-3.7566,-3.7593,-3.763,-3.7632,-3.7643,-3.7683,-3.765,-3.7665,-3.7637,-3.762,-3.7663,-3.7653,-3.7665,-3.7676,-3.765,-3.7729,-3.7711,-3.7672,-3.7614,-3.771,-3.7744,-3.7759,-3.7565,-3.7563,-3.7561,-3.756,0,0,-3.7733,-3.7713,-3.7727,-3.7727,-3.7718,-3.7738,-3.7775,-3.7787,-3.7801,-3.7803,-3.7833,-3.7862,-3.7825,-3.783,-3.7802,-3.7833,-3.7922,-3.779,-3.7789,-3.7815,-3.8009,-3.8039,-3.8056,-3.7897,-3.79,-3.7902,-3.8009,0,-3.7841,-3.7903,-3.7869,-3.7936,-3.796,-3.7906,-3.7938,-3.7935,-3.792,-3.7938,-3.7921,-3.7942,-3.7893,-3.7895,-3.7922,-3.7906,-3.7961,-3.7897,-3.7925,-3.7926,-3.7928,-3.8074,-3.8106,-3.8208,-3.8023,-3.8025,-3.8027,0,-3.7975,-3.7983,-3.8053,-3.8038,-3.8047,-3.8077,-3.8085,-3.8103,-3.8099,-3.8086,-3.8091,-3.8056,-3.8091,-3.8033,-3.8081,-3.8039,-3.8048,-3.8041,-3.8045,-3.8046,-3.7983,-3.808,-3.824,-3.8255,-3.8048,-3.8046,-3.8044,0,-3.8091,-3.8119,-3.8164,-3.8165,-3.815,-3.8172,-3.8166,-3.8159,-3.8168,-3.8175,-3.8181,-3.8192,-3.8199,-3.8208,-3.8177,-3.8138,-3.823,-3.8169,-3.822,-3.8221,-3.8242,-3.8241,-3.8406,-3.8247,-3.8247,-3.8247,-3.8246,0,-3.8215,-3.826,-3.8215,-3.8243,-3.8291,-3.8252,-3.83,-3.8289,-3.8283,-3.8308,-3.8261,-3.8285,-3.8242,-3.8262,-3.8238,-3.8282,-3.8285,-3.8275,-3.8268,-3.828,-3.8281,-3.8285,-3.8278,-3.8251,-3.825,-3.8249,-3.8248,0,-3.8352,-3.8324,-3.8369,-3.8351,-3.8347,-3.8384,-3.8367,-3.8392,-3.8373,-3.8405,-3.841,-3.8381,-3.8402,-3.8372,-3.8389,-3.8373,-3.8433,-3.8415,-3.8435,-3.843,-3.8482,-3.8478,-3.8656,-3.8677,-3.8505,-3.8506,-3.8508,0,-3.8434,-3.8467,-3.8451,-3.8464,-3.8462,-3.8483,-3.8492,-3.8455,-3.8466,-3.8464,-3.849,-3.8506,-3.8518,-3.8554,-3.8534,-3.8548,-3.853,-3.8591,-3.8532,-3.8542,-3.8531,-3.853,-3.8534,-3.8604,-3.8606,-3.8608,-3.8609,0,-3.8581,-3.8566,-3.8581,-3.8592,-3.8604,-3.8611,-3.8614,-3.8627,-3.8587,-3.8603,-3.8623,-3.8632,-3.865,-3.8668,-3.8676,-3.867,-3.8634,-3.8628,-3.864,-3.8653,-3.8663,-3.8658,-3.8469,-3.8624,-3.8622,-3.8621,-3.8621,-3.862,-3.8693,-3.872,-3.8714,-3.8732,-3.873,-3.8734,-3.8757,-3.8741,-3.8757,-3.8769,-3.8746,-3.8772,-3.8767,-3.8774,-3.8773,-3.8793,-3.8766,-3.8784,-3.8789,-3.8794,-3.8803,-3.8659,-3.8794,-3.8794,-3.8793,-3.8793,-3.8793,0,-3.8839,-3.8832,-3.885,-3.8855,-3.887,-3.8833,-3.8835,-3.885,-3.8874,-3.8872,-3.8884,-3.8908,-3.8925,-3.8907,-3.892,-3.894,-3.8924,-3.8945,-3.8943,-3.8943,-3.8826,-3.8814,-3.8958,-3.8958,-3.8958,-3.8958,-3.8958,-3.8958,-3.8917,-3.896,-3.8944,-3.8986,-3.8979,-3.9005,-3.9009,-3.9012,-3.901,-3.9039,-3.9053,-3.9041,-3.9032,-3.9045,-3.9059,-3.9053,-3.906,-3.9088,-3.9076,-3.8967,-3.8951,-3.8935,-3.8924,-3.9089,-3.909,-3.9191,-3.9192,-3.9193]}]]